Location: Unspecified
(48.5539°N, 71.6350°W)
Time: 11:38:21
(UTC-04:00)

ISS - Pass Details

Date: 28 May 2019
Orbit: 407 x 418 km, 51.6° (Epoch: 20 June)

Event Time Altitude Azimuth Distance (km) Brightness Sun altitude
Rises 21:06:58 0° 283° (WNW) 2,352 1.3 -4.9°
Reaches altitude 10° 21:09:06 10° 289° (WNW) 1,492 0.4 -5.1°
Maximum altitude 21:12:22 49° 5° (N) 549 -2.9 -5.5°
Drops below altitude 10° 21:15:38 10° 82° (E) 1,497 -1.3 -5.9°
Enters shadow 21:17:40 - 88° (E) 2,317 -0.4 -6.2°
